Total_Precipitation_Accumulation
0.00 0.00 0.01 0.01 0.01 0.01 0.02 0.03 0.08 0.13 0.14 0.21 0.34 0.44 0.62 0.74 0.94 1.12 1.15 1.09 1.11 1.19 1.29 1.35 1.34 1.20 1.32 1.42 1.34 1.36 1.29 1.09 0.71 0.48 0.28 0.20 0.17 0.15 0.14 0.16 0.16 0.19 0.23 0.28
0.01 0.02 0.02 0.01 0.01 0.01 0.03 0.05 0.10 0.13 0.13 0.18 0.32 0.56 0.69 0.75 0.77 0.86 0.94 0.90 0.88 0.92 0.95 0.90 0.83 0.88 0.79 0.81 0.81 0.78 0.78 0.64 0.42 0.28 0.20 0.17 0.13 0.09 0.08 0.07 0.09 0.09 0.12 0.17
0.00 0.01 0.01 0.01 0.01 0.02 0.04 0.05 0.06 0.10 0.10 0.18 0.32 0.76 0.82 0.71 0.63 0.57 0.67 0.71 0.66 0.65 0.60 0.51 0.48 0.48 0.62 0.79 0.70 0.52 0.50 0.40 0.28 0.19 0.14 0.12 0.12 0.11 0.09 0.08 0.07 0.08 0.07 0.09
0.01 0.01 0.01 0.01 0.02 0.01 0.03 0.03 0.02 0.02 0.06 0.28 0.39 0.79 0.84 0.69 0.67 0.51 0.48 0.50 0.38 0.31 0.32 0.34 0.33 0.34 0.42 0.52 0.51 0.45 0.40 0.34 0.22 0.15 0.11 0.10 0.09 0.09 0.08 0.07 0.07 0.07 0.06 0.07
0.01 0.01 0.01 0.01 0.01 0.01 0.01 0.01 0.01 0.03 0.08 0.21 0.33 0.64 0.82 0.61 0.68 0.47 0.30 0.20 0.13 0.11 0.12 0.19 0.21 0.23 0.23 0.23 0.32 0.35 0.41 0.41 0.27 0.20 0.14 0.12 0.10 0.08 0.07 0.07 0.09 0.09 0.10 0.11
0.01 0.01 0.01 0.01 0.01 0.01 0.01 0.01 0.07 0.15 0.24 0.48 0.48 0.45 0.69 0.50 0.36 0.20 0.12 0.07 0.05 0.04 0.06 0.10 0.12 0.15 0.17 0.17 0.19 0.23 0.32 0.37 0.28 0.21 0.18 0.18 0.18 0.16 0.14 0.13 0.13 0.15 0.18 0.20
0.06 0.05 0.03 0.01 0.01 0.02 0.01 0.02 0.16 0.34 0.54 0.66 0.35 0.45 0.74 0.35 0.19 0.09 0.06 0.03 0.02 0.02 0.03 0.05 0.07 0.09 0.11 0.12 0.11 0.11 0.16 0.21 0.18 0.15 0.14 0.18 0.27 0.33 0.33 0.27 0.24 0.21 0.21 0.23
0.09 0.15 0.06 0.02 0.01 0.01 0.01 0.01 0.04 0.09 0.17 0.26 0.28 0.84 0.67 0.18 0.09 0.05 0.02 0.02 0.02 0.01 0.01 0.02 0.04 0.05 0.05 0.06 0.06 0.06 0.09 0.10 0.09 0.08 0.10 0.10 0.14 0.19 0.27 0.34 0.31 0.31 0.32 0.27
0.03 0.04 0.03 0.02 0.01 0.01 0.01 0.00 0.01 0.02 0.04 0.15 0.39 0.55 0.27 0.07 0.04 0.02 0.01 0.01 0.01 0.00 0.00 0.00 0.01 0.01 0.02 0.03 0.03 0.03 0.05 0.07 0.06 0.04 0.04 0.04 0.04 0.05 0.08 0.13 0.16 0.21 0.31 0.31
0.02 0.01 0.02 0.02 0.01 0.02 0.02 0.01 0.01 0.01 0.03 0.11 0.27 0.47 0.43 0.15 0.05 0.02 0.01 0.01 0.00 0.00 0.00 0.00 0.00 0.00 0.01 0.03 0.03 0.02 0.03 0.04 0.04 0.03 0.02 0.01 0.02 0.03 0.04 0.05 0.05 0.07 0.11 0.15
0.02 0.01 0.01 0.02 0.02 0.03 0.03 0.01 0.01 0.01 0.02 0.04 0.15 0.27 0.27 0.14 0.07 0.03 0.01 0.01 0.01 0.01 0.00 0.00 0.00 0.00 0.00 0.01 0.01 0.02 0.03 0.03 0.02 0.02 0.02 0.02 0.02 0.01 0.02 0.03 0.03 0.03 0.03 0.03
0.01 0.01 0.01 0.02 0.03 0.02 0.03 0.03 0.02 0.02 0.02 0.03 0.04 0.08 0.06 0.05 0.05 0.02 0.01 0.01 0.02 0.01 0.00 0.00 0.00 0.00 0.00 0.01 0.01 0.01 0.03 0.02 0.01 0.01 0.02 0.02 0.02 0.02 0.03 0.03 0.03 0.03 0.03 0.02
0.01 0.01 0.01 0.05 0.11 0.08 0.04 0.03 0.02 0.02 0.03 0.03 0.04 0.09 0.07 0.05 0.04 0.02 0.01 0.01 0.01 0.01 0.00 0.00 0.01 0.00 0.00 0.01 0.01 0.01 0.04 0.04 0.02 0.01 0.01 0.03 0.03 0.03 0.05 0.06 0.05 0.05 0.05 0.04
0.01 0.00 0.00 0.05 0.11 0.13 0.08 0.03 0.03 0.02 0.02 0.02 0.03 0.06 0.08 0.10 0.09 0.05 0.02 0.01 0.01 0.01 0.01 0.00 0.01 0.02 0.01 0.01 0.01 0.01 0.01 0.02 0.02 0.03 0.04 0.06 0.07 0.07 0.07 0.07 0.06 0.06 0.07 0.06
0.01 0.00 0.00 0.01 0.02 0.04 0.04 0.03 0.03 0.02 0.02 0.02 0.03 0.05 0.10 0.16 0.14 0.07 0.02 0.02 0.01 0.01 0.01 0.01 0.02 0.03 0.03 0.02 0.02 0.02 0.02 0.03 0.04 0.07 0.08 0.09 0.09 0.08 0.09 0.09 0.09 0.10 0.12 0.10
0.02 0.01 0.01 0.01 0.01 0.02 0.02 0.03 0.03 0.03 0.02 0.02 0.03 0.05 0.07 0.10 0.07 0.04 0.03 0.03 0.02 0.02 0.02 0.02 0.03 0.03 0.04 0.03 0.03 0.04 0.04 0.05 0.06 0.10 0.13 0.16 0.15 0.14 0.17 0.18 0.17 0.19 0.19 0.20
0.09 0.08 0.04 0.01 0.02 0.02 0.02 0.03 0.03 0.04 0.04 0.04 0.06 0.07 0.10 0.11 0.08 0.05 0.05 0.04 0.04 0.03 0.03 0.03 0.04 0.05 0.05 0.05 0.05 0.06 0.05 0.06 0.08 0.10 0.13 0.16 0.19 0.22 0.26 0.27 0.28 0.26 0.26 0.27
0.27 0.20 0.10 0.04 0.04 0.05 0.03 0.05 0.05 0.06 0.08 0.10 0.10 0.09 0.10 0.10 0.08 0.07 0.07 0.06 0.05 0.04 0.04 0.04 0.04 0.05 0.05 0.06 0.08 0.09 0.09 0.09 0.11 0.13 0.16 0.18 0.20 0.22 0.26 0.30 0.34 0.37 0.39 0.36
0.36 0.37 0.25 0.10 0.07 0.08 0.09 0.10 0.08 0.10 0.14 0.13 0.16 0.15 0.15 0.12 0.11 0.11 0.09 0.07 0.06 0.05 0.05 0.04 0.04 0.05 0.06 0.07 0.08 0.09 0.09 0.10 0.11 0.13 0.15 0.19 0.23 0.25 0.29 0.35 0.42 0.48 0.48 0.41
0.24 0.25 0.23 0.17 0.14 0.16 0.16 0.22 0.14 0.11 0.20 0.22 0.25 0.21 0.18 0.15 0.22 0.17 0.09 0.06 0.05 0.05 0.04 0.04 0.03 0.04 0.05 0.06 0.08 0.09 0.11 0.13 0.16 0.18 0.20 0.24 0.28 0.30 0.32 0.34 0.38 0.40 0.42 0.41
0.23 0.25 0.22 0.17 0.16 0.16 0.17 0.19 0.17 0.26 0.33 0.28 0.27 0.18 0.10 0.13 0.17 0.13 0.08 0.06 0.05 0.05 0.04 0.03 0.03 0.03 0.05 0.07 0.09 0.12 0.13 0.15 0.16 0.18 0.21 0.23 0.24 0.27 0.29 0.31 0.33 0.37 0.39 0.38
0.27 0.24 0.24 0.24 0.34 0.38 0.29 0.27 0.35 0.40 0.21 0.11 0.08 0.09 0.11 0.11 0.10 0.08 0.06 0.05 0.04 0.03 0.03 0.03 0.04 0.05 0.07 0.09 0.12 0.14 0.15 0.15 0.15 0.17 0.20 0.22 0.25 0.28 0.29 0.33 0.34 0.33 0.33 0.31
0.31 0.34 0.36 0.37 0.46 0.40 0.38 0.36 0.27 0.20 0.14 0.10 0.08 0.09 0.10 0.09 0.06 0.04 0.03 0.02 0.02 0.01 0.02 0.03 0.04 0.05 0.07 0.10 0.13 0.16 0.17 0.16 0.18 0.21 0.22 0.23 0.24 0.27 0.30 0.35 0.36 0.36 0.37 0.36
0.34 0.28 0.33 0.41 0.46 0.39 0.30 0.31 0.22 0.16 0.14 0.10 0.08 0.08 0.08 0.07 0.05 0.04 0.02 0.01 0.01 0.01 0.02 0.03 0.04 0.06 0.07 0.08 0.11 0.15 0.17 0.19 0.21 0.22 0.21 0.21 0.21 0.21 0.25 0.32 0.36 0.37 0.37 0.36
0.30 0.29 0.32 0.43 0.50 0.46 0.41 0.33 0.20 0.16 0.12 0.09 0.08 0.08 0.07 0.06 0.04 0.02 0.02 0.01 0.01 0.01 0.02 0.03 0.04 0.05 0.06 0.07 0.09 0.11 0.14 0.19 0.22 0.22 0.21 0.20 0.18 0.19 0.22 0.27 0.29 0.26 0.28 0.25
0.18 0.21 0.32 0.47 0.48 0.45 0.40 0.28 0.16 0.13 0.13 0.13 0.10 0.08 0.06 0.04 0.03 0.03 0.02 0.02 0.02 0.02 0.03 0.04 0.04 0.04 0.05 0.05 0.06 0.07 0.10 0.16 0.24 0.27 0.24 0.21 0.19 0.20 0.22 0.23 0.24 0.23 0.20 0.18